Weather History for Hanford, CA

Change the Weather History Date:

Tuesday, December 16, 2014

  Actual Average Record
Temperature  
Mean Temperature 51 °F 44 °F  
Max Temperature 59 °F 54 °F 63 °F (2013)
Min Temperature 42 °F 34 °F 25 °F (2007)
Degree Days  
Heating Degree Days 14    
Month to date heating degree days 177  
Since 1 July heating degree days 488  
Cooling Degree Days 0    
Month to date cooling degree days 0  
Year to date cooling degree days 2274  
Moisture  
Dew Point 46 °F    
Average Humidity 86    
Maximum Humidity 100    
Minimum Humidity 72    
Precipitation  
Precipitation 0.13 in 0.05 in 0.42 in (2002)
Month to date precipitation 2.19 0.49  
Year to date precipitation 5.43 8.96  
Since 1 July precipitation 3.00 2.20  
Snow  
Snow 0.00 in - - ()
Month to date snowfall 0.0  
Since 1 July snowfall 0.0  
Snow Depth 0.00 in    
Sea Level Pressure  
Sea Level Pressure 29.99 in    
Wind  
Wind Speed 4 mph (SE)    
Max Wind Speed 10 mph    
Max Gust Speed 11 mph    
T = Trace of Precipitation, MM = Missing Value Source: NWS Daily Summary

Daily Weather History Graph

Daily Weather History Graph

Search for Another Location

Airport:

Trip Planner

Search our weather history database for the weather conditions in past years. The results will help you decide how hot, cold, wet, or windy it might be!

Date:

Astronomy

Dec. 16, 2014 Rise Set
Actual Time 7:03 AM PST 4:45 PM PST
Civil Twilight 6:34 AM PST 5:13 PM PST
Nautical Twilight 6:02 AM PST 5:46 PM PST
Astronomical Twilight 5:31 AM PST 6:17 PM PST
Moon 1:31 AM PST (12/16) 1:10 PM PST (12/16)
Length of Visible Light 10h 39m
Length of Day
9h 41m
Waning Crescent, 29% of the Moon is Illuminated
Dec 16
Waning Crescent
Dec 21
New
Dec 28
First Quarter
Jan 4
Full
Jan 13
Last Quarter

Hourly Weather History & Observations

Time (PST) Temp. Windchill Dew Point Humidity Pressure Visibility Wind Dir Wind Speed Gust Speed Precip Events Conditions
12:53 AM 50.0 °F - 48.0 °F 93% 29.99 in - NE 5.8 mph - N/A   Overcast
1:53 AM 48.0 °F - 46.9 °F 96% 29.98 in - SSW 3.5 mph - N/A   Mostly Cloudy
2:53 AM 46.0 °F 44.8 °F 45.0 °F 96% 30.00 in - NW 3.5 mph - N/A   Partly Cloudy
3:53 AM 45.0 °F - 45.0 °F 100% 30.00 in - Calm Calm - N/A   Clear
4:16 AM 43.0 °F 41.3 °F 42.1 °F 97% 29.99 in - East 3.5 mph - N/A   Scattered Clouds
4:53 AM 43.0 °F - 42.1 °F 97% 30.00 in - Calm Calm - N/A   Clear
5:03 AM 43.0 °F - 42.1 °F 97% 30.00 in - Calm Calm - N/A   Scattered Clouds
5:53 AM 43.0 °F - 43.0 °F 100% 30.01 in - Calm Calm - N/A   Mostly Cloudy
6:53 AM 43.0 °F 38.8 °F 42.1 °F 97% 30.03 in - ENE 6.9 mph - N/A   Partly Cloudy
7:51 AM 42.8 °F 41.1 °F 42.8 °F 100% 30.02 in - ESE 3.5 mph - N/A   Scattered Clouds
7:53 AM 42.1 °F 40.2 °F 42.1 °F 100% 30.03 in - ESE 3.5 mph - N/A   Scattered Clouds
8:02 AM 43.0 °F 40.3 °F 42.1 °F 97% 30.02 in - ESE 4.6 mph - N/A   Mostly Cloudy
8:18 AM 44.1 °F 42.5 °F 44.1 °F 100% 30.03 in - ESE 3.5 mph - N/A   Overcast
8:53 AM 46.0 °F - 46.0 °F 100% 30.05 in - Calm Calm - N/A   Overcast
9:53 AM 48.0 °F - 48.0 °F 100% 30.06 in - Calm Calm - N/A   Overcast
10:38 AM 50.0 °F - 50.0 °F 100% 30.03 in - SE 3.5 mph - N/A   Scattered Clouds
10:53 AM 51.1 °F - 48.9 °F 92% 30.03 in - SE 5.8 mph - N/A   Clear
11:53 AM 55.0 °F - 48.9 °F 80% 30.01 in - South 8.1 mph - N/A   Partly Cloudy
12:53 PM 55.9 °F - 48.9 °F 77% 29.98 in - South 8.1 mph - N/A   Clear
1:53 PM 57.9 °F - 48.9 °F 72% 29.96 in - South 8.1 mph - N/A   Clear
2:53 PM 59.0 °F - 50.0 °F 72% 29.95 in - SSE 6.9 mph - N/A   Clear
3:53 PM 59.0 °F - 51.1 °F 75% 29.94 in - SSE 5.8 mph - N/A   Clear
4:53 PM 55.0 °F - 50.0 °F 83% 29.96 in - ESE 4.6 mph - N/A   Clear
5:53 PM 54.0 °F - 48.9 °F 83% 29.95 in - East 8.1 mph - N/A   Clear
6:53 PM 51.1 °F - 48.0 °F 89% 29.95 in - ESE 6.9 mph - N/A   Clear
7:53 PM 51.1 °F - 46.9 °F 86% 29.95 in - SE 5.8 mph - N/A   Partly Cloudy
8:53 PM 50.0 °F - 46.9 °F 89% 29.96 in - SE 4.6 mph - N/A   Overcast
9:53 PM 51.1 °F - 48.0 °F 89% 29.96 in - South 3.5 mph - N/A   Overcast
10:53 PM 51.1 °F - 48.9 °F 92% 29.98 in - SSW 5.8 mph - 0.08 in Rain Light Rain
11:53 PM 51.1 °F - 48.9 °F 92% 29.96 in - Calm Calm - 0.04 in Rain Light Rain